Location: ????? ???
(30.6095°N, 60.5606°E)
Time: 16:02:27
(UTC+00:00)

Daily predictions for brighter satellites

Satellite Brightness Start Highest point End
(mag) Time Altitude Azimuth Time Altitude Azimuth Time Altitude Azimuth
SL-14 R/B 4.1 14:37:15 10° NNE 14:40:48 30° E 14:44:18 10° SE
STARLINK-1066 3.0 14:39:02 10° NW 14:42:08 59° NE 14:45:14 10° SE
STARLINK-1081 3.0 14:39:29 10° NW 14:42:34 60° NE 14:45:38 10° SE
STARLINK-1083 4.5 14:38:52 10° NNW 14:42:40 34° NE 14:46:27 10° ESE
STARLINK-1070 2.9 14:39:57 10° NW 14:43:02 61° NE 14:46:06 10° SE
STARLINK-1069 3.0 14:40:22 10° NW 14:43:29 62° NE 14:46:35 10° SE
STARLINK-1085 2.9 14:40:49 10° NW 14:43:57 63° NE 14:47:02 10° SE
CZ-4 R/B 1.7 14:40:24 10° S 14:44:15 69° W 14:48:05 10° NNW
STARLINK-1086 2.9 14:41:16 10° NW 14:44:22 63° NE 14:47:26 10° SE
STARLINK-1095 2.9 14:41:45 10° NW 14:44:50 64° NE 14:47:55 10° SE
STARLINK-1077 2.9 14:42:11 10° NW 14:45:16 65° NE 14:48:22 10° SE
H-2A R/B 3.3 14:41:25 10° ESE 14:45:23 22° ENE 14:49:18 10° NNE
STARLINK-1075 2.9 14:42:38 10° NW 14:45:43 66° NE 14:48:48 10° SE
STARLINK-1093 2.9 14:43:03 10° NW 14:46:10 68° NE 14:49:17 10° SE
STARLINK-1074 2.9 14:43:30 10° NW 14:46:38 69° NE 14:49:46 10° SE
STARLINK-1087 2.8 14:43:59 10° NW 14:47:05 70° NE 14:50:10 10° SE
STARLINK-1088 2.8 14:44:25 10° NW 14:47:32 71° NE 14:50:37 10° SE
STARLINK-1125 4.3 14:43:46 10° NNW 14:47:38 38° NE 14:51:30 10° ESE
STARLINK-1115 2.8 14:44:50 10° NW 14:47:59 72° NE 14:51:06 10° SE
STARLINK-1076 2.8 14:45:18 10° NW 14:48:26 73° NE 14:51:34 10° SE
STARLINK-1092 2.8 14:45:44 10° NW 14:48:52 74° NE 14:52:00 10° SE
Cosmos 304 Rocket 3.7 14:44:23 10° NNW 14:49:10 79° ENE 14:53:55 10° SSE
Cosmos 2297 4.0 14:43:46 10° N 14:49:14 46° ENE 14:54:42 10° SE
STARLINK-1080 2.8 14:46:13 10° NW 14:49:19 75° NE 14:52:25 10° SE
STARLINK-1090 2.8 14:46:41 10° NW 14:49:47 76° NE 14:52:53 10° SE
STARLINK-1089 2.8 14:47:07 10° NW 14:50:13 77° NE 14:53:20 10° SE
SEDSat Delta rocket 3.2 14:45:12 10° W 14:50:23 89° N 14:54:55 10° E
STARLINK-1107 2.8 14:47:35 10° NW 14:50:41 78° NE 14:53:47 10° SE
SL-4 R/B 1.9 14:48:54 10° SSW 14:52:09 41° SE 14:55:22 10° ENE
STARLINK-1109 4.2 14:48:43 10° NNW 14:52:39 42° NE 14:56:23 11° ESE
Cosmos 1939 Rocket 3.2 14:50:48 10° S 14:54:45 69° W 14:58:39 10° NNW
Cosmos 2278 Rocket 3.9 14:50:21 10° NW 14:55:29 36° WSW 15:00:36 10° SSW
STARLINK-1091 4.0 14:53:36 10° NNW 14:57:36 47° NE 15:01:08 13° ESE
Cosmos 1726 3.6 14:57:02 10° SE 14:59:32 17° E 15:02:02 10° NE
BREEZE-M DEB (TANK) 3.7 14:51:41 10° NW 14:59:57 39° NNE 15:02:21 14° E
Cosmos 2315 Rocket 4.0 14:53:49 10° S 15:00:04 72° E 15:06:24 10° N
NOSS 3-3 (A) 3.7 14:55:31 10° SSW 15:01:07 78° ESE 15:07:16 10° NNE
NOSS 3-3 (C) 3.7 14:55:38 10° SSW 15:01:14 77° ESE 15:07:22 10° NNE
STARLINK-1072 3.8 14:58:34 10° NNW 15:02:38 53° NE 15:05:59 14° ESE
Cosmos 2251 Rocket 3.6 14:57:33 10° S 15:02:46 58° ESE 15:08:02 10° NNE
ARGOS Delta rocket 4.3 14:58:19 10° SSE 15:03:08 46° ENE 15:08:13 10° N
GOES 2 Rocket 4.0 15:00:40 10° W 15:04:30 36° SSW 15:08:05 13° SE
STARLINK-1096 3.7 15:03:33 10° NW 15:07:39 60° NE 15:10:48 16° SE
USA 186 3.2 15:06:07 16° ESE 15:07:47 23° ENE 15:10:30 10° NNE
STARLINK-1079 3.6 15:08:28 10° NW 15:12:35 68° NE 15:15:33 18° SE
FALCON 9 R/B 4.1 15:05:47 10° W 15:12:43 75° S 15:43:20 20° ESE
Aureole 3 3.6 15:09:03 10° SSE 15:12:48 52° E 15:17:33 10° NNE
YAOGAN 1 4.0 15:08:51 10° S 15:12:56 41° W 15:17:01 10° NNW
GEOS 3 Rocket 3.5 15:08:37 10° SE 15:13:41 78° ENE 15:18:52 10° NNW
Cosmos 1953 2.5 15:11:50 10° SSE 15:15:37 45° E 15:19:25 10° NNE
STARLINK-1116 3.5 15:13:27 10° NW 15:17:35 77° NE 15:20:21 20° SE
Cosmos 2369 Rocket 3.4 15:15:15 10° N 15:19:47 24° ENE 15:21:48 20° E
Cosmos 1709 Rocket 3.9 15:15:44 10° N 15:21:54 84° E 15:28:00 10° S
Cosmos 1943 Rocket 2.7 15:21:21 10° N 15:26:28 37° ENE 15:29:05 24° ESE
STARLINK-1094 3.6 15:23:23 10° NW 15:27:31 84° SW 15:29:54 24° SE
Cosmos 1626 Rocket 3.4 15:24:44 10° N 15:29:07 81° E 15:33:25 10° S
OAO 3 Copernicus 4.4 15:25:24 10° WNW 15:30:25 72° NNE 15:33:02 28° E
Ariane Rocket 2.9 15:26:01 10° SSE 15:31:04 77° ENE 15:36:08 10° N
FREGAT/IRIS 2.5 15:31:33 50° ENE 15:31:33 50° ENE 15:34:06 10° N
STARLINK-1117 3.7 15:28:22 10° NW 15:32:29 74° SW 15:34:41 26° SSE
Cosmos 1943 3.1 15:29:59 10° SSW 15:35:36 81° ESE 15:41:17 10° NNE
Delta 128 3.9 15:31:11 10° W 15:35:56 67° S 15:38:24 31° ESE
USA 234 3.2 15:29:43 10° NE 15:36:17 87° SE 15:42:50 10° SW
CZ-2C R/B 3.7 15:31:49 10° NNE 15:36:27 57° E 15:40:57 10° S
Cosmos 1626 3.4 15:33:15 10° NNW 15:36:45 41° W 15:40:14 10° SSW
Cosmos 2074 Rocket 4.4 15:30:59 10° NNE 15:36:49 39° E 15:39:40 26° SE
STARLINK-1078 3.9 15:33:22 10° NW 15:37:28 65° SW 15:39:29 28° SSE
IRIDIUM 114 4.4 15:33:27 10° N 15:38:33 53° E 15:42:04 19° SSE
Cosmos 1602 Rocket 3.4 15:34:25 10° N 15:38:50 80° E 15:42:24 15° S
CZ-3 Stage 3 4.0 15:33:17 10° WSW 15:39:32 83° SSE 16:20:58 10° E
STARLINK-1108 4.0 15:38:21 10° NW 15:42:25 57° SW 15:44:15 29° SSE
Cosmos 1726 Rocket 4.4 15:43:28 31° ENE 15:43:28 31° ENE 15:46:33 10° NNE
SPOT 3 Rocket 4.0 15:45:32 36° ESE 15:46:40 41° ENE 15:51:32 10° N
STARLINK-1071 4.3 15:43:22 10° NW 15:47:23 50° SW 15:49:03 30° S
SL-08 RB Rocket 3.8 15:46:34 42° ESE 15:47:37 52° ENE 15:52:02 10° N
IRIDIUM 103 4.2 15:42:33 10° N 15:47:44 67° E 15:51:14 21° SSE
STARLINK-1110 4.5 15:48:24 10° NW 15:52:21 44° SW 15:53:50 30° S
Cosmos 1825 Rocket 4.3 15:52:27 10° N 15:55:42 37° NE 15:55:42 37° NE
MOS 1 4.3 15:54:48 16° S 15:59:27 80° WSW 16:05:07 10° NNW
Aureole 2 Rocket 3.3 15:56:43 10° N 15:59:05 39° N 15:59:05 39° N
ATLAS 5 CENTAUR R/B 3.4 15:55:02 10° SW 16:00:14 39° SSE 16:04:26 31° ESE
CZ-2C R/B 3.2 15:57:46 16° S 16:01:50 68° WSW 16:06:41 10° NNW
ISS -1.4 16:00:01 10° N 16:01:17 16° N 16:01:17 16° N
SJ-6B 2.9 16:02:12 53° S 16:03:05 77° W 16:07:12 10° NNW
Cosmos 1818 4.1 15:58:13 10° SW 16:03:33 59° WNW 16:08:55 10° NNE
IRIDIUM 106 4.4 16:00:46 10° N 16:05:59 79° W 16:09:24 22° S
STARLINK-60 4.4 16:04:08 10° SW 16:06:14 35° WSW 16:06:14 35° WSW
Cosmos 1758 Rocket 3.5 16:04:00 10° N 16:07:49 65° NNE 16:07:49 65° NNE
Cosmos 614 Rocket 3.8 16:03:38 10° S 16:08:50 77° ESE 16:14:04 10° NNE
MOS 1 Rocket 3.5 16:03:43 10° NNE 16:09:07 77° E 16:12:14 26° S
Cosmos 407 Rocket 3.8 16:10:23 48° NE 16:10:23 48° NE 16:14:17 10° NNE
Cosmos 1606 Rocket 3.6 16:09:01 40° SSW 16:10:33 77° W 16:14:58 10° N
ARGOS 3.6 16:09:58 18° S 16:13:52 58° W 16:19:10 10° NNW
MetOp-A 4.0 16:15:48 70° SE 16:16:19 77° ENE 16:21:40 10° N
CZ-2C R/B 2.4 16:11:27 10° NNE 16:16:39 88° ESE 16:18:33 41° S
Cosmos 2228 3.2 16:16:53 64° WSW 16:17:13 67° W 16:21:30 10° N
Meteor 1-21 Rocket 4.5 16:11:58 10° NNW 16:17:26 64° W 16:20:22 28° SSW
Cosmos 1992 Rocket 4.0 16:17:26 10° NNW 16:22:38 76° WSW 16:23:09 68° SSW
H-2A R/B 3.5 16:19:42 10° SSW 16:24:32 35° W 16:29:17 10° NNW
Cosmos 2084 Rocket 4.1 16:23:31 10° NW 16:27:17 56° WNW 16:27:17 56° WNW
SL-4 R/B 4.4 16:29:45 10° WNW 16:31:51 15° NW 16:32:22 15° NNW
Cosmos 2184 Rocket 4.2 16:26:58 10° NNW 16:33:12 69° W 16:35:18 42° SSW
SEDSat Delta rocket 4.1 16:31:57 10° W 16:35:07 42° W 16:35:07 42° W
BREEZE-M DEB (TANK) 4.5 16:20:57 10° NW 16:46:03 75° NE 16:47:11 66° E
Resurs 01 Rocket 3.7 16:57:21 23° NNW 16:57:21 23° NNW 16:59:06 10° NNW
Cosmos 2154 Rocket 4.1 16:48:45 10° N 16:54:41 71° WNW 16:54:41 71° WNW
Cosmos 2369 Rocket 3.4 16:58:40 10° NW 17:03:38 36° W 17:03:38 36° W
Cosmos 1943 Rocket 4.1 17:05:43 10° NW 17:09:54 22° W 17:10:39 21° WSW
ATLAS 2AS CENTAUR R/B 3.6 17:16:22 10° NNW 17:21:21 44° N 17:21:21 44° N
Cosmos 2227 Rocket 3.8 22:36:21 30° ENE 22:36:21 30° ENE 22:39:30 10° NE
CENTAUR R/B 3.9 22:43:35 27° E 22:43:35 27° E 22:48:14 10° NE
NOSS 3-2 (C) 4.3 22:56:14 41° E 22:56:14 41° E 23:01:01 10° NE
Cosmos 2082 4.4 23:08:30 48° ESE 23:08:30 48° ESE 23:13:55 10° NNE
MSX 4.5 23:09:53 10° NNE 23:15:29 50° E 23:16:41 43° SE
Cosmos 1975 4.3 23:23:49 10° NNE 23:27:12 36° ENE 23:27:12 36° ENE
Meteor 1-18 Rocket 4.2 23:29:30 72° NW 23:29:30 72° NW 23:34:49 10° N
Skynet4D Del rocket 4.1 23:33:59 61° SSW 23:34:35 63° S 23:42:13 10° ESE
ATLAS 3B R/B 3.6 23:32:20 23° S 23:36:05 43° ESE 23:42:16 10° NE
ADEOS II 4.4 23:33:09 10° NNW 23:33:20 11° NNW 23:33:20 11° NNW
CZ-4B R/B 3.1 23:40:02 32° NE 23:40:02 32° NE 23:42:20 10° N
Cosmos 2237 Rocket 2.3 23:33:30 10° NNW 23:39:11 75° ENE 23:44:51 10° SSE
STARLINK-1058 4.4 23:42:54 48° ESE 23:42:54 48° ESE 23:46:35 10° NE
Okean 3 3.7 23:44:14 66° E 23:44:14 66° E 23:48:19 10° NNE
Meteor 2-4 Rocket 4.0 23:42:28 27° S 23:45:45 72° E 23:51:41 10° NNE
STARLINK-1043 4.1 23:47:42 55° ESE 23:47:42 55° ESE 23:51:36 10° NE
PSLV R/B 3.5 23:44:07 10° NNE 23:48:26 87° NNE 23:48:26 87° NNE
STARLINK-1065 4.0 23:48:59 57° ESE 23:48:59 57° ESE 23:52:57 10° NE
USA 238 DEB 4.2 23:49:43 38° WNW 23:50:19 39° NW 23:56:36 10° NNE
USA 238 4.2 23:49:47 38° WNW 23:50:25 39° NW 23:56:45 10° NNE
Cosmos 2297 Rocket 3.2 23:53:08 30° NW 23:53:08 30° NW 23:57:22 10° N
CZ-2C R/B 2.8 23:47:57 10° NNE 23:52:26 55° E 23:55:06 23° S
